UAE9616 YSSY-NZAA

Flight info

Callsign UAE9616
Flight time 2h 43m
Altitude 35000
Route KEVIN7/16L EVONN L521 LUNBI
Aircraft B77L/H-SDE1E2E3FGHIJ2J3J4J5M1RWXY/LB1D1

Departure

Time 2026-04-21 08:23
Airport Sydney Kingsford Smith International Airport (YSSY)

Arrival

Time 2026-04-21 11:07
Airport Auckland International Airport (NZAA)
Time Latitude Longitude Altitude Speed Heading
2026-04-21 07:28 -33.93109 151.16788 34 ft 0 kts 257°
2026-04-21 08:14 -33.93108 151.16789 34 ft 2 kts 257°
2026-04-21 08:15 -33.93102 151.16818 32 ft 4 kts 251°
2026-04-21 08:15 -33.93093 151.16847 32 ft 4 kts 247°
2026-04-21 08:15 -33.93083 151.16877 33 ft 4 kts 254°
2026-04-21 08:15 -33.93079 151.16903 34 ft 4 kts 278°
2026-04-21 08:16 -33.93089 151.16924 34 ft 4 kts 344°
2026-04-21 08:16 -33.93114 151.16929 34 ft 4 kts 354°
2026-04-21 08:16 -33.93125 151.16930 34 ft 2 kts 347°
2026-04-21 08:20 -33.93108 151.16926 34 ft 3 kts 347°
2026-04-21 08:21 -33.93083 151.16919 34 ft 5 kts 347°
2026-04-21 08:21 -33.93038 151.16909 34 ft 8 kts 355°
2026-04-21 08:21 -33.92991 151.16946 34 ft 9 kts 58°
2026-04-21 08:21 -33.92972 151.17016 35 ft 9 kts 77°
2026-04-21 08:22 -33.92959 151.17088 35 ft 9 kts 81°
2026-04-21 08:22 -33.92977 151.17155 33 ft 9 kts 136°
2026-04-21 08:22 -33.93058 151.17189 33 ft 22 kts 168°
2026-04-21 08:22 -33.93351 151.17264 33 ft 73 kts 168°
2026-04-21 08:23 -33.94056 151.17445 31 ft 131 kts 168°
2026-04-21 08:23 -33.95096 151.17712 72 ft 168 kts 168°
2026-04-21 08:23 -33.96220 151.17970 675 ft 162 kts 168°
2026-04-21 08:23 -33.97339 151.18234 1197 ft 167 kts 168°
2026-04-21 08:24 -33.98543 151.18544 1475 ft 189 kts 167°
2026-04-21 08:24 -33.99910 151.18921 1695 ft 216 kts 167°
2026-04-21 08:24 -34.01445 151.19329 2126 ft 232 kts 167°
2026-04-21 08:24 -34.03049 151.19771 2783 ft 240 kts 166°
2026-04-21 08:25 -34.04661 151.20282 3583 ft 238 kts 159°
2026-04-21 08:25 -34.05969 151.21515 4185 ft 249 kts 123°
2026-04-21 08:25 -34.06504 151.23526 4856 ft 256 kts 103°
2026-04-21 08:25 -34.06825 151.25671 5462 ft 263 kts 105°
2026-04-21 08:26 -34.07191 151.27824 6190 ft 267 kts 105°
2026-04-21 08:26 -34.07565 151.30025 6920 ft 270 kts 105°
2026-04-21 08:26 -34.07941 151.32255 7612 ft 273 kts 105°
2026-04-21 08:26 -34.08315 151.34502 8378 ft 274 kts 105°
2026-04-21 08:27 -34.08690 151.36762 9109 ft 276 kts 105°
2026-04-21 08:27 -34.09069 151.39045 9814 ft 279 kts 105°
2026-04-21 08:27 -34.09452 151.41356 10429 ft 285 kts 105°
2026-04-21 08:27 -34.09860 151.43788 10618 ft 307 kts 105°
2026-04-21 08:28 -34.10299 151.46413 10802 ft 331 kts 104°
2026-04-21 08:28 -34.10766 151.49224 10970 ft 353 kts 104°
2026-04-21 08:28 -34.11255 151.52195 11425 ft 367 kts 104°
2026-04-21 08:28 -34.11753 151.55242 12118 ft 373 kts 104°
2026-04-21 08:29 -34.12257 151.58340 12943 ft 378 kts 104°
2026-04-21 08:29 -34.12766 151.61466 13802 ft 382 kts 104°
2026-04-21 08:29 -34.13283 151.64635 14570 ft 387 kts 104°
2026-04-21 08:29 -34.13805 151.67841 15332 ft 391 kts 104°
2026-04-21 08:30 -34.14334 151.71084 16046 ft 397 kts 104°
2026-04-21 08:30 -34.14870 151.74379 16727 ft 403 kts 104°
2026-04-21 08:30 -34.15411 151.77713 17425 ft 408 kts 104°
2026-04-21 08:30 -34.15961 151.81099 18097 ft 413 kts 104°
2026-04-21 08:31 -34.16515 151.84524 18749 ft 418 kts 104°
2026-04-21 08:31 -34.17074 151.87991 19344 ft 423 kts 104°
2026-04-21 08:31 -34.17638 151.91490 19976 ft 426 kts 104°
2026-04-21 08:31 -34.18205 151.95013 20626 ft 429 kts 104°
2026-04-21 08:32 -34.18776 151.98575 21251 ft 433 kts 104°
2026-04-21 08:32 -34.19363 152.02153 21844 ft 436 kts 106°
2026-04-21 08:32 -34.20172 152.05683 22423 ft 436 kts 113°
2026-04-21 08:32 -34.21196 152.09150 23011 ft 439 kts 114°
2026-04-21 08:33 -34.22224 152.12595 23585 ft 443 kts 114°
2026-04-21 08:33 -34.23271 152.16115 24141 ft 447 kts 114°
2026-04-21 08:33 -34.24333 152.19715 24619 ft 450 kts 114°
2026-04-21 08:33 -34.25382 152.23296 25104 ft 454 kts 114°
2026-04-21 08:34 -34.26435 152.26908 25556 ft 458 kts 114°
2026-04-21 08:34 -34.27492 152.30554 26019 ft 461 kts 114°
2026-04-21 08:34 -34.28554 152.34225 26477 ft 465 kts 114°
2026-04-21 08:34 -34.29610 152.37880 26911 ft 468 kts 114°
2026-04-21 08:35 -34.30688 152.41616 27356 ft 472 kts 114°
2026-04-21 08:35 -34.31771 152.45377 27798 ft 475 kts 114°
2026-04-21 08:35 -34.32860 152.49164 28239 ft 479 kts 114°
2026-04-21 08:35 -34.33955 152.52976 28662 ft 482 kts 114°
2026-04-21 08:36 -34.35060 152.56823 29054 ft 485 kts 114°
2026-04-21 08:36 -34.36167 152.60687 29454 ft 488 kts 114°
2026-04-21 08:36 -34.37280 152.64578 29868 ft 490 kts 114°
2026-04-21 08:36 -34.38392 152.68473 30384 ft 489 kts 114°
2026-04-21 08:37 -34.39502 152.72368 30892 ft 487 kts 114°
2026-04-21 08:37 -34.40603 152.76235 31379 ft 485 kts 114°
2026-04-21 08:37 -34.41700 152.80098 31840 ft 484 kts 114°
2026-04-21 08:37 -34.42796 152.83956 32303 ft 483 kts 114°
2026-04-21 08:38 -34.43886 152.87799 32784 ft 481 kts 114°
2026-04-21 08:38 -34.44956 152.91578 33217 ft 480 kts 114°
2026-04-21 08:38 -34.46045 152.95417 33306 ft 484 kts 114°
2026-04-21 08:39 -34.48220 153.03112 33292 ft 480 kts 114°
2026-04-21 08:39 -34.50378 153.10773 33304 ft 479 kts 114°
2026-04-21 08:40 -34.52527 153.18416 33304 ft 479 kts 115°
2026-04-21 08:40 -34.54669 153.26067 33300 ft 479 kts 114°
2026-04-21 08:41 -34.56807 153.33715 33297 ft 479 kts 114°
2026-04-21 08:41 -34.58926 153.41320 33298 ft 479 kts 114°
2026-04-21 08:42 -34.61056 153.48986 33306 ft 480 kts 115°
2026-04-21 08:42 -34.63185 153.56662 33293 ft 480 kts 115°
2026-04-21 08:43 -34.65310 153.64349 33291 ft 480 kts 115°
2026-04-21 08:43 -34.67426 153.72034 33293 ft 480 kts 115°
2026-04-21 08:44 -34.69540 153.79729 33294 ft 480 kts 115°
2026-04-21 08:44 -34.71652 153.87434 33288 ft 480 kts 115°
2026-04-21 08:45 -34.73761 153.95145 33287 ft 480 kts 115°
2026-04-21 08:45 -34.75861 154.02853 33287 ft 480 kts 115°
2026-04-21 08:46 -34.77967 154.10593 33574 ft 484 kts 115°
2026-04-21 08:46 -34.79018 154.14472 34009 ft 482 kts 115°
2026-04-21 08:46 -34.80062 154.18340 34434 ft 479 kts 115°
2026-04-21 08:46 -34.81101 154.22190 34793 ft 478 kts 115°
2026-04-21 08:47 -34.82139 154.26037 35086 ft 477 kts 115°
2026-04-21 08:47 -34.83164 154.29834 35223 ft 480 kts 115°
2026-04-21 08:47 -34.84207 154.33700 35252 ft 481 kts 115°
2026-04-21 08:48 -34.86282 154.41423 35285 ft 479 kts 115°
2026-04-21 08:48 -34.88348 154.49137 35277 ft 478 kts 115°
2026-04-21 08:49 -34.90403 154.56827 35280 ft 477 kts 115°
2026-04-21 08:49 -34.92449 154.64510 35282 ft 476 kts 115°
2026-04-21 08:50 -34.94479 154.72148 35294 ft 477 kts 115°
2026-04-21 08:50 -34.96516 154.79838 35283 ft 477 kts 115°
2026-04-21 08:51 -34.98551 154.87548 35274 ft 478 kts 115°
2026-04-21 08:51 -35.00257 154.94022 35275 ft 479 kts 115°
2026-04-21 08:52 -35.02275 155.01703 35285 ft 479 kts 115°
2026-04-21 08:52 -35.04308 155.09461 35275 ft 480 kts 115°
2026-04-21 08:53 -35.06333 155.17215 35277 ft 480 kts 115°
2026-04-21 08:53 -35.08358 155.24986 35275 ft 480 kts 114°
2026-04-21 08:54 -35.10374 155.32747 35266 ft 479 kts 114°
2026-04-21 08:54 -35.12381 155.40501 35264 ft 478 kts 114°
2026-04-21 08:55 -35.14382 155.48248 35267 ft 478 kts 114°
2026-04-21 08:55 -35.16380 155.56006 35263 ft 478 kts 114°
2026-04-21 08:56 -35.18371 155.63758 35286 ft 478 kts 114°
2026-04-21 08:56 -35.20343 155.71470 35266 ft 478 kts 114°
2026-04-21 08:57 -35.22325 155.79234 35261 ft 478 kts 114°
2026-04-21 08:57 -35.24301 155.87002 35258 ft 478 kts 114°
2026-04-21 08:58 -35.26270 155.94768 35286 ft 478 kts 114°
2026-04-21 08:58 -35.28235 156.02537 35260 ft 478 kts 114°
2026-04-21 08:59 -35.30196 156.10315 35255 ft 478 kts 114°
2026-04-21 08:59 -35.32153 156.18103 35251 ft 478 kts 114°
2026-04-21 09:00 -35.34104 156.25885 35281 ft 478 kts 114°
2026-04-21 09:00 -35.36052 156.33684 35255 ft 478 kts 114°
2026-04-21 09:01 -35.37993 156.41479 35247 ft 479 kts 113°
2026-04-21 09:01 -35.39921 156.49242 35245 ft 479 kts 113°
2026-04-21 09:02 -35.41854 156.57050 35245 ft 479 kts 113°
2026-04-21 09:02 -35.43786 156.64877 35248 ft 480 kts 113°
2026-04-21 09:03 -35.46677 156.76636 35238 ft 479 kts 113°
2026-04-21 09:03 -35.48593 156.84462 35237 ft 479 kts 113°
2026-04-21 09:04 -35.50503 156.92284 35256 ft 478 kts 112°
2026-04-21 09:04 -35.52408 157.00112 35246 ft 479 kts 112°
2026-04-21 09:05 -35.54308 157.07947 35235 ft 479 kts 112°
2026-04-21 09:05 -35.56204 157.15789 35233 ft 478 kts 112°
2026-04-21 09:06 -35.58082 157.23579 35260 ft 478 kts 112°
2026-04-21 09:06 -35.59968 157.31427 35233 ft 479 kts 112°
2026-04-21 09:07 -35.61849 157.39287 35231 ft 479 kts 112°
2026-04-21 09:07 -35.63723 157.47136 35228 ft 479 kts 112°
2026-04-21 09:08 -35.65593 157.54990 35250 ft 478 kts 112°
2026-04-21 09:08 -35.67461 157.62857 35234 ft 479 kts 111°
2026-04-21 09:09 -35.69320 157.70719 35220 ft 478 kts 111°
2026-04-21 09:09 -35.71169 157.78566 35219 ft 477 kts 111°
2026-04-21 09:10 -35.73011 157.86410 35219 ft 477 kts 111°
2026-04-21 09:10 -35.74850 157.94257 35219 ft 477 kts 111°
2026-04-21 09:11 -35.76686 158.02121 35214 ft 478 kts 111°
2026-04-21 09:11 -35.78459 158.10022 35207 ft 480 kts 108°
2026-04-21 09:12 -35.79867 158.18066 35216 ft 481 kts 107°
2026-04-21 09:12 -35.81209 158.26093 35210 ft 482 kts 106°
2026-04-21 09:13 -35.82571 158.34187 35204 ft 482 kts 106°
2026-04-21 09:13 -35.83941 158.42266 35204 ft 481 kts 106°
2026-04-21 09:14 -35.85312 158.50340 35198 ft 481 kts 106°
2026-04-21 09:14 -35.86678 158.58427 35200 ft 482 kts 106°
2026-04-21 09:15 -35.88039 158.66513 35198 ft 482 kts 106°
2026-04-21 09:15 -35.89394 158.74599 35196 ft 482 kts 106°
2026-04-21 09:16 -35.90741 158.82687 35195 ft 481 kts 106°
2026-04-21 09:16 -35.92085 158.90784 35199 ft 481 kts 105°
2026-04-21 09:17 -35.93422 158.98870 35191 ft 481 kts 105°
2026-04-21 09:17 -35.94741 159.06900 35182 ft 481 kts 105°
2026-04-21 09:18 -35.96075 159.15039 35184 ft 480 kts 105°
2026-04-21 09:18 -35.97385 159.23068 35198 ft 480 kts 105°
2026-04-21 09:19 -35.98708 159.31204 35179 ft 480 kts 104°
2026-04-21 09:19 -36.00005 159.39229 35173 ft 480 kts 105°
2026-04-21 09:20 -36.01306 159.47315 35175 ft 479 kts 104°
2026-04-21 09:20 -36.02600 159.55400 35181 ft 479 kts 105°
2026-04-21 09:21 -36.03888 159.63470 35173 ft 479 kts 104°
2026-04-21 09:21 -36.05170 159.71549 35166 ft 479 kts 105°
2026-04-21 09:22 -36.06446 159.79620 35169 ft 478 kts 104°
2026-04-21 09:22 -36.07717 159.87698 35167 ft 478 kts 104°
2026-04-21 09:23 -36.08981 159.95769 35151 ft 478 kts 104°
2026-04-21 09:23 -36.10240 160.03841 35149 ft 478 kts 104°
2026-04-21 09:24 -36.11491 160.11916 35160 ft 478 kts 104°
2026-04-21 09:24 -36.12732 160.19949 35145 ft 479 kts 104°
2026-04-21 09:25 -36.13974 160.28035 35144 ft 478 kts 104°
2026-04-21 09:25 -36.15211 160.36128 35137 ft 478 kts 104°
2026-04-21 09:26 -36.16444 160.44217 35140 ft 478 kts 104°
2026-04-21 09:26 -36.17672 160.52320 35134 ft 478 kts 104°
2026-04-21 09:27 -36.18892 160.60411 35142 ft 478 kts 104°
2026-04-21 09:27 -36.20104 160.68492 35127 ft 477 kts 104°
2026-04-21 09:28 -36.21310 160.76564 35123 ft 476 kts 103°
2026-04-21 09:28 -36.22508 160.84620 35125 ft 475 kts 104°
2026-04-21 09:29 -36.23698 160.92671 35132 ft 474 kts 103°
2026-04-21 09:29 -36.24873 161.00653 35120 ft 473 kts 104°
2026-04-21 09:30 -36.26049 161.08669 35113 ft 472 kts 103°
2026-04-21 09:30 -36.27225 161.16726 35115 ft 472 kts 104°
2026-04-21 09:31 -36.28376 161.24666 35127 ft 471 kts 103°
2026-04-21 09:31 -36.29537 161.32711 35111 ft 471 kts 104°
2026-04-21 09:32 -36.30680 161.40654 35102 ft 471 kts 103°
2026-04-21 09:32 -36.31823 161.48645 35105 ft 470 kts 104°
2026-04-21 09:33 -36.32959 161.56626 35105 ft 470 kts 103°
2026-04-21 09:33 -36.34090 161.64623 35108 ft 471 kts 103°
2026-04-21 09:34 -36.35219 161.72630 35100 ft 471 kts 103°
2026-04-21 09:34 -36.36341 161.80632 35102 ft 470 kts 103°
2026-04-21 09:35 -36.37455 161.88632 35096 ft 470 kts 103°
2026-04-21 09:35 -36.38564 161.96629 35098 ft 470 kts 103°
2026-04-21 09:36 -36.39663 162.04578 35093 ft 470 kts 103°
2026-04-21 09:36 -36.40768 162.12628 35087 ft 471 kts 103°
2026-04-21 09:37 -36.41679 162.19297 35087 ft 471 kts 103°
2026-04-21 09:37 -36.42945 162.28611 35098 ft 471 kts 103°
2026-04-21 09:38 -36.43853 162.35321 35089 ft 470 kts 103°
2026-04-21 09:38 -36.44934 162.43332 35076 ft 470 kts 103°
2026-04-21 09:39 -36.46005 162.51335 35078 ft 469 kts 103°
2026-04-21 09:39 -36.47063 162.59284 35073 ft 469 kts 103°
2026-04-21 09:40 -36.48122 162.67279 35081 ft 468 kts 103°
2026-04-21 09:40 -36.49175 162.75258 35072 ft 467 kts 103°
2026-04-21 09:41 -36.50217 162.83224 35060 ft 466 kts 103°
2026-04-21 09:41 -36.51257 162.91183 35078 ft 465 kts 103°
2026-04-21 09:42 -36.52288 162.99122 35079 ft 465 kts 103°
2026-04-21 09:42 -36.53310 163.07053 35062 ft 464 kts 103°
2026-04-21 09:43 -36.54317 163.14932 35063 ft 464 kts 103°
2026-04-21 09:43 -36.55325 163.22862 35065 ft 464 kts 103°
2026-04-21 09:44 -36.56327 163.30785 35084 ft 464 kts 103°
2026-04-21 09:44 -36.57327 163.38729 35069 ft 464 kts 103°
2026-04-21 09:45 -36.58320 163.46654 35059 ft 463 kts 103°
2026-04-21 09:45 -36.59306 163.54576 35061 ft 463 kts 103°
2026-04-21 09:46 -36.60287 163.62501 35059 ft 463 kts 103°
2026-04-21 09:46 -36.61256 163.70363 35069 ft 463 kts 103°
2026-04-21 09:47 -36.62223 163.78281 35054 ft 462 kts 103°
2026-04-21 09:47 -36.63187 163.86186 35053 ft 462 kts 103°
2026-04-21 09:48 -36.64143 163.94084 35053 ft 461 kts 103°
2026-04-21 09:48 -36.65094 164.01992 35077 ft 461 kts 103°
2026-04-21 09:49 -36.66044 164.09897 35053 ft 462 kts 103°
2026-04-21 09:49 -36.66983 164.17810 35049 ft 462 kts 103°
2026-04-21 09:50 -36.67761 164.24396 35049 ft 462 kts 103°
2026-04-21 09:50 -36.68852 164.33659 35049 ft 462 kts 102°
2026-04-21 09:51 -36.69781 164.41592 35052 ft 463 kts 102°
2026-04-21 09:51 -36.70704 164.49540 35048 ft 464 kts 102°
2026-04-21 09:52 -36.71618 164.57461 35049 ft 464 kts 102°
2026-04-21 09:52 -36.72533 164.65429 35049 ft 464 kts 102°
2026-04-21 09:53 -36.73445 164.73410 35061 ft 464 kts 102°
2026-04-21 09:53 -36.74351 164.81396 35052 ft 465 kts 102°
2026-04-21 09:54 -36.75252 164.89391 35046 ft 466 kts 102°
2026-04-21 09:54 -36.76148 164.97394 35048 ft 466 kts 101°
2026-04-21 09:55 -36.77041 165.05408 35044 ft 466 kts 101°
2026-04-21 09:55 -36.77929 165.13428 35039 ft 467 kts 101°
2026-04-21 09:56 -36.78812 165.21472 35056 ft 468 kts 101°
2026-04-21 09:56 -36.79687 165.29476 35053 ft 469 kts 101°
2026-04-21 09:57 -36.80562 165.37545 35037 ft 469 kts 101°
2026-04-21 09:57 -36.81434 165.45616 35047 ft 470 kts 101°
2026-04-21 09:58 -36.82303 165.53708 35048 ft 470 kts 101°
2026-04-21 09:58 -36.83164 165.61806 35038 ft 471 kts 100°
2026-04-21 09:59 -36.84022 165.69927 35042 ft 472 kts 100°
2026-04-21 09:59 -36.84869 165.77995 35042 ft 471 kts 100°
2026-04-21 10:00 -36.85723 165.86167 35038 ft 472 kts 100°
2026-04-21 10:00 -36.86560 165.94251 35041 ft 473 kts 100°
2026-04-21 10:01 -36.87404 166.02446 35033 ft 473 kts 99°
2026-04-21 10:01 -36.88239 166.10606 35036 ft 473 kts 99°
2026-04-21 10:02 -36.89474 166.22796 35039 ft 474 kts 99°
2026-04-21 10:03 -36.90292 166.30966 35037 ft 474 kts 99°
2026-04-21 10:03 -36.91109 166.39151 35035 ft 474 kts 99°
2026-04-21 10:04 -36.91922 166.47336 35036 ft 475 kts 99°
2026-04-21 10:04 -36.92726 166.55517 35044 ft 475 kts 99°
2026-04-21 10:05 -36.93529 166.63722 35036 ft 476 kts 99°
2026-04-21 10:05 -36.94325 166.71950 35035 ft 476 kts 99°
2026-04-21 10:06 -36.95110 166.80108 35038 ft 476 kts 99°
2026-04-21 10:06 -36.95896 166.88324 35046 ft 476 kts 99°
2026-04-21 10:07 -36.96673 166.96541 35034 ft 476 kts 99°
2026-04-21 10:07 -36.97447 167.04759 35034 ft 476 kts 99°
2026-04-21 10:08 -36.98215 167.12973 35035 ft 476 kts 99°
2026-04-21 10:08 -36.98977 167.21188 35034 ft 476 kts 99°
2026-04-21 10:09 -36.99734 167.29414 35039 ft 476 kts 99°
2026-04-21 10:09 -37.00485 167.37646 35038 ft 476 kts 99°
2026-04-21 10:10 -37.01226 167.45825 35040 ft 476 kts 99°
2026-04-21 10:10 -37.01966 167.54069 35029 ft 477 kts 98°
2026-04-21 10:11 -37.02701 167.62315 35037 ft 477 kts 98°
2026-04-21 10:11 -37.03431 167.70564 35029 ft 477 kts 98°
2026-04-21 10:12 -37.04156 167.78818 35032 ft 476 kts 98°
2026-04-21 10:12 -37.04872 167.87061 35028 ft 476 kts 98°
2026-04-21 10:13 -37.05583 167.95305 35023 ft 476 kts 98°
2026-04-21 10:13 -37.06290 168.03549 35025 ft 477 kts 98°
2026-04-21 10:14 -37.06991 168.11807 35024 ft 477 kts 99°
2026-04-21 10:14 -37.07686 168.20064 35024 ft 477 kts 98°
2026-04-21 10:15 -37.08375 168.28334 35023 ft 478 kts 98°
2026-04-21 10:15 -37.09061 168.36615 35030 ft 478 kts 98°
2026-04-21 10:16 -37.09743 168.44913 35024 ft 480 kts 98°
2026-04-21 10:16 -37.10416 168.53220 35025 ft 479 kts 98°
2026-04-21 10:17 -37.11084 168.61478 35023 ft 479 kts 98°
2026-04-21 10:17 -37.11751 168.69803 35037 ft 480 kts 98°
2026-04-21 10:18 -37.12409 168.78126 35026 ft 480 kts 99°
2026-04-21 10:18 -37.13064 168.86461 35022 ft 480 kts 98°
2026-04-21 10:19 -37.13713 168.94792 35021 ft 480 kts 98°
2026-04-21 10:19 -37.14355 169.03118 35016 ft 480 kts 99°
2026-04-21 10:20 -37.14991 169.11440 35018 ft 479 kts 98°
2026-04-21 10:20 -37.15620 169.19748 35015 ft 479 kts 98°
2026-04-21 10:21 -37.16241 169.28058 35017 ft 479 kts 98°
2026-04-21 10:21 -37.16857 169.36366 35016 ft 479 kts 98°
2026-04-21 10:22 -37.17469 169.44683 35025 ft 479 kts 97°
2026-04-21 10:22 -37.18074 169.52990 35009 ft 479 kts 98°
2026-04-21 10:23 -37.18671 169.61263 35011 ft 479 kts 98°
2026-04-21 10:23 -37.19266 169.69594 35007 ft 481 kts 97°
2026-04-21 10:24 -37.19857 169.77945 35000 ft 480 kts 98°
2026-04-21 10:24 -37.20442 169.86291 35014 ft 481 kts 97°
2026-04-21 10:25 -37.21022 169.94658 35004 ft 481 kts 97°
2026-04-21 10:25 -37.21506 170.01655 35004 ft 481 kts 97°
2026-04-21 10:26 -37.22066 170.09954 35003 ft 480 kts 97°
2026-04-21 10:26 -37.22627 170.18353 35003 ft 480 kts 96°
2026-04-21 10:27 -37.23179 170.26641 35000 ft 479 kts 97°
2026-04-21 10:27 -37.23728 170.34975 34996 ft 479 kts 96°
2026-04-21 10:28 -37.24269 170.43304 34997 ft 478 kts 96°
2026-04-21 10:28 -37.24806 170.51614 34994 ft 478 kts 96°
2026-04-21 10:29 -37.25336 170.59916 35003 ft 477 kts 96°
2026-04-21 10:29 -37.25788 170.68227 34987 ft 476 kts 92°
2026-04-21 10:30 -37.25612 170.76543 34982 ft 476 kts 89°
2026-04-21 10:30 -37.25250 170.84787 34984 ft 476 kts 89°
2026-04-21 10:31 -37.24938 170.93097 34987 ft 475 kts 89°
2026-04-21 10:31 -37.24680 171.01385 34979 ft 475 kts 89°
2026-04-21 10:32 -37.24435 171.09677 34976 ft 475 kts 89°
2026-04-21 10:32 -37.24184 171.17968 34973 ft 475 kts 89°
2026-04-21 10:33 -37.23924 171.26256 34971 ft 475 kts 89°
2026-04-21 10:33 -37.23656 171.34550 34972 ft 476 kts 89°
2026-04-21 10:34 -37.23382 171.42857 34969 ft 477 kts 89°
2026-04-21 10:34 -37.23103 171.51164 34964 ft 477 kts 88°
2026-04-21 10:35 -37.22818 171.59486 34962 ft 478 kts 88°
2026-04-21 10:35 -37.22526 171.67819 34953 ft 478 kts 88°
2026-04-21 10:36 -37.22227 171.76176 34955 ft 479 kts 88°
2026-04-21 10:36 -37.21922 171.84537 34951 ft 480 kts 88°
2026-04-21 10:37 -37.21609 171.92912 34949 ft 481 kts 88°
2026-04-21 10:37 -37.21296 172.01249 34942 ft 481 kts 88°
2026-04-21 10:38 -37.20973 172.09641 34929 ft 483 kts 87°
2026-04-21 10:38 -37.20641 172.18078 34936 ft 486 kts 87°
2026-04-21 10:39 -37.20302 172.26565 34938 ft 488 kts 87°
2026-04-21 10:39 -37.19955 172.35090 34940 ft 491 kts 87°
2026-04-21 10:40 -37.19601 172.43651 34929 ft 492 kts 87°
2026-04-21 10:40 -37.19239 172.52222 34930 ft 492 kts 87°
2026-04-21 10:41 -37.18873 172.60735 34653 ft 484 kts 87°
2026-04-21 10:41 -37.18690 172.64942 34187 ft 480 kts 87°
2026-04-21 10:41 -37.18508 172.69091 33738 ft 473 kts 88°
2026-04-21 10:41 -37.18327 172.73189 33261 ft 467 kts 88°
2026-04-21 10:42 -37.18153 172.77177 32833 ft 461 kts 88°
2026-04-21 10:42 -37.17975 172.81157 32382 ft 455 kts 88°
2026-04-21 10:42 -37.17796 172.85090 31959 ft 449 kts 89°
2026-04-21 10:42 -37.17618 172.88972 31524 ft 443 kts 90°
2026-04-21 10:43 -37.17442 172.92799 31097 ft 438 kts 89°
2026-04-21 10:43 -37.17267 172.96593 30673 ft 433 kts 90°
2026-04-21 10:43 -37.17093 173.00341 30237 ft 428 kts 90°
2026-04-21 10:43 -37.16921 173.04046 29794 ft 423 kts 90°
2026-04-21 10:44 -37.16748 173.07706 29322 ft 419 kts 90°
2026-04-21 10:44 -37.16575 173.11335 28888 ft 413 kts 90°
2026-04-21 10:44 -37.16406 173.14900 28473 ft 408 kts 91°
2026-04-21 10:44 -37.16237 173.18428 28043 ft 403 kts 89°
2026-04-21 10:45 -37.16069 173.21921 27648 ft 399 kts 90°
2026-04-21 10:45 -37.15902 173.25376 27225 ft 395 kts 90°
2026-04-21 10:45 -37.15736 173.28800 26818 ft 392 kts 90°
2026-04-21 10:45 -37.15570 173.32196 26407 ft 388 kts 90°
2026-04-21 10:46 -37.15405 173.35561 26022 ft 385 kts 89°
2026-04-21 10:46 -37.15240 173.38898 25636 ft 382 kts 90°
2026-04-21 10:46 -37.15074 173.42213 25249 ft 379 kts 90°
2026-04-21 10:46 -37.14890 173.45502 24873 ft 378 kts 86°
2026-04-21 10:47 -37.14484 173.48755 24477 ft 376 kts 82°
2026-04-21 10:47 -37.13941 173.51959 24113 ft 376 kts 80°
2026-04-21 10:47 -37.13360 173.55172 23749 ft 381 kts 80°
2026-04-21 10:47 -37.12772 173.58451 23322 ft 391 kts 80°
2026-04-21 10:48 -37.12187 173.61802 22869 ft 395 kts 81°
2026-04-21 10:48 -37.11617 173.65126 22438 ft 393 kts 81°
2026-04-21 10:48 -37.11053 173.68464 22024 ft 390 kts 81°
2026-04-21 10:48 -37.10499 173.71782 21596 ft 387 kts 81°
2026-04-21 10:49 -37.09951 173.75069 21197 ft 384 kts 81°
2026-04-21 10:49 -37.09410 173.78331 20790 ft 381 kts 81°
2026-04-21 10:49 -37.08872 173.81566 20395 ft 378 kts 81°
2026-04-21 10:49 -37.08339 173.84770 20013 ft 375 kts 81°
2026-04-21 10:50 -37.07808 173.87951 19617 ft 372 kts 81°
2026-04-21 10:50 -37.07279 173.91112 19229 ft 370 kts 80°
2026-04-21 10:50 -37.06753 173.94251 18852 ft 368 kts 81°
2026-04-21 10:50 -37.06228 173.97379 18468 ft 366 kts 81°
2026-04-21 10:51 -37.05707 174.00484 18083 ft 364 kts 81°
2026-04-21 10:51 -37.05186 174.03578 17648 ft 362 kts 81°
2026-04-21 10:51 -37.04669 174.06644 17235 ft 359 kts 81°
2026-04-21 10:51 -37.04155 174.09685 16855 ft 356 kts 81°
2026-04-21 10:52 -37.03644 174.12705 16468 ft 352 kts 81°
2026-04-21 10:52 -37.03436 174.15687 16070 ft 337 kts 100°
2026-04-21 10:52 -37.03804 174.18531 15773 ft 330 kts 103°
2026-04-21 10:52 -37.04182 174.21371 15418 ft 333 kts 104°
2026-04-21 10:53 -37.04553 174.24273 15071 ft 343 kts 102°
2026-04-21 10:53 -37.04928 174.27288 14708 ft 355 kts 101°
2026-04-21 10:53 -37.05300 174.30361 14321 ft 358 kts 101°
2026-04-21 10:53 -37.05662 174.33401 13927 ft 357 kts 101°
2026-04-21 10:54 -37.06022 174.36465 13522 ft 354 kts 101°
2026-04-21 10:54 -37.06378 174.39500 13110 ft 351 kts 101°
2026-04-21 10:54 -37.06731 174.42506 12726 ft 347 kts 101°
2026-04-21 10:54 -37.07079 174.45476 12351 ft 343 kts 101°
2026-04-21 10:55 -37.07423 174.48412 11983 ft 339 kts 101°
2026-04-21 10:55 -37.07762 174.51315 11637 ft 335 kts 101°
2026-04-21 10:55 -37.08102 174.54186 11272 ft 331 kts 102°
2026-04-21 10:55 -37.08534 174.56991 10927 ft 326 kts 105°
2026-04-21 10:56 -37.09018 174.59750 10591 ft 322 kts 105°
2026-04-21 10:56 -37.09503 174.62468 10346 ft 315 kts 106°
2026-04-21 10:56 -37.09967 174.65103 10241 ft 304 kts 106°
2026-04-21 10:56 -37.10408 174.67623 10192 ft 290 kts 105°
2026-04-21 10:57 -37.10827 174.70043 10063 ft 278 kts 104°
2026-04-21 10:57 -37.11228 174.72373 9944 ft 271 kts 104°
2026-04-21 10:57 -37.11629 174.74711 9677 ft 279 kts 104°
2026-04-21 10:57 -37.12038 174.77112 9376 ft 282 kts 104°
2026-04-21 10:58 -37.12448 174.79524 9053 ft 282 kts 104°
2026-04-21 10:58 -37.12851 174.81905 8742 ft 277 kts 104°
2026-04-21 10:58 -37.13248 174.84242 8439 ft 272 kts 104°
2026-04-21 10:58 -37.13638 174.86537 8137 ft 265 kts 104°
2026-04-21 10:59 -37.14018 174.88763 7865 ft 257 kts 104°
2026-04-21 10:59 -37.14379 174.90926 7600 ft 251 kts 104°
2026-04-21 10:59 -37.14489 174.93089 7317 ft 254 kts 80°
2026-04-21 10:59 -37.13691 174.95109 7075 ft 268 kts 49°
2026-04-21 11:00 -37.12296 174.96653 6791 ft 269 kts 41°
2026-04-21 11:00 -37.10851 174.98133 6481 ft 266 kts 41°
2026-04-21 11:00 -37.09438 174.99593 6186 ft 261 kts 41°
2026-04-21 11:00 -37.08050 175.01032 5897 ft 263 kts 42°
2026-04-21 11:01 -37.06639 175.02501 5608 ft 265 kts 42°
2026-04-21 11:01 -37.05217 175.03985 5319 ft 266 kts 42°
2026-04-21 11:01 -37.03826 175.05435 5183 ft 254 kts 43°
2026-04-21 11:02 -37.00661 175.06626 4785 ft 252 kts 348°
2026-04-21 11:02 -36.98993 175.05948 4494 ft 253 kts 341°
2026-04-21 11:02 -36.97336 175.05217 4159 ft 251 kts 342°
2026-04-21 11:02 -36.95766 175.04387 3914 ft 240 kts 323°
2026-04-21 11:03 -36.94822 175.02765 3593 ft 230 kts 279°
2026-04-21 11:03 -36.94860 175.00857 3347 ft 214 kts 244°
2026-04-21 11:03 -36.95475 174.99209 3117 ft 211 kts 242°
2026-04-21 11:03 -36.96021 174.97458 2860 ft 222 kts 246°
2026-04-21 11:04 -36.96518 174.95642 2587 ft 217 kts 247°
2026-04-21 11:04 -36.97002 174.93876 2280 ft 212 kts 247°
2026-04-21 11:04 -36.97462 174.92199 2017 ft 194 kts 246°
2026-04-21 11:04 -36.97884 174.90671 1740 ft 178 kts 245°
2026-04-21 11:05 -36.98268 174.89278 1482 ft 160 kts 244°
2026-04-21 11:05 -36.98619 174.88012 1299 ft 151 kts 244°
2026-04-21 11:05 -36.98963 174.86764 1119 ft 152 kts 245°
2026-04-21 11:05 -36.99310 174.85510 888 ft 151 kts 246°
2026-04-21 11:06 -36.99648 174.84281 660 ft 149 kts 248°
2026-04-21 11:06 -36.99969 174.83057 468 ft 146 kts 250°
2026-04-21 11:06 -37.00308 174.81846 282 ft 150 kts 248°
2026-04-21 11:06 -37.00655 174.80621 75 ft 148 kts 248°
2026-04-21 11:07 -37.00982 174.79454 30 ft 129 kts 250°
2026-04-21 11:07 -37.01201 174.78652 30 ft 46 kts 251°
2026-04-21 11:07 -37.01247 174.78334 30 ft 26 kts 269°
2026-04-21 11:07 -37.01233 174.78195 30 ft 14 kts 279°
2026-04-21 11:08 -37.01198 174.78090 30 ft 14 kts 335°
2026-04-21 11:08 -37.01137 174.78167 30 ft 14 kts 71°
2026-04-21 11:08 -37.01107 174.78283 30 ft 14 kts 70°
2026-04-21 11:08 -37.01075 174.78397 30 ft 14 kts 71°
2026-04-21 11:09 -37.01042 174.78511 30 ft 14 kts 70°
2026-04-21 11:09 -37.01008 174.78624 30 ft 14 kts 70°
2026-04-21 11:09 -37.00988 174.78703 30 ft 14 kts 72°
2026-04-21 11:09 -37.00957 174.78817 30 ft 14 kts 71°
2026-04-21 11:10 -37.00915 174.78969 30 ft 14 kts 71°
2026-04-21 11:10 -37.00893 174.79046 29 ft 14 kts 70°
2026-04-21 11:10 -37.00861 174.79160 30 ft 14 kts 71°
2026-04-21 11:10 -37.00829 174.79275 30 ft 14 kts 71°
2026-04-21 11:11 -37.00799 174.79390 30 ft 14 kts 71°
2026-04-21 11:11 -37.00768 174.79505 30 ft 14 kts 71°
2026-04-21 11:11 -37.00736 174.79619 30 ft 14 kts 70°
2026-04-21 11:11 -37.00705 174.79733 30 ft 14 kts 71°
2026-04-21 11:12 -37.00672 174.79848 30 ft 14 kts 70°
2026-04-21 11:12 -37.00640 174.79961 30 ft 14 kts 71°
2026-04-21 11:12 -37.00607 174.80075 30 ft 14 kts 69°
2026-04-21 11:12 -37.00572 174.80188 30 ft 14 kts 71°
2026-04-21 11:13 -37.00545 174.80304 30 ft 13 kts 73°
2026-04-21 11:13 -37.00521 174.80354 30 ft 7 kts 36°
2026-04-21 11:13 -37.00477 174.80358 30 ft 7 kts 351°
2026-04-21 11:13 -37.00435 174.80376 29 ft 7 kts 45°
2026-04-21 11:14 -37.00404 174.80420 29 ft 7 kts 42°
2026-04-21 11:14 -37.00360 174.80442 30 ft 7 kts
2026-04-21 11:14 -37.00312 174.80431 30 ft 7 kts 347°
2026-04-21 11:14 -37.00266 174.80429 30 ft 7 kts 36°
2026-04-21 11:15 -37.00261 174.80471 29 ft 2 kts 102°
2026-04-21 11:15 -37.00274 174.80482 29 ft 2 kts 164°
2026-04-21 11:15 -37.00277 174.80482 30 ft 1 kts 167°
2026-04-21 11:15 -37.00289 174.80484 30 ft 2 kts 178°
2026-04-21 11:16 -37.00298 174.80484 30 ft 0 kts 181°